Regional Weather Roundup
Issued by NWS

Home | Current Version | Previous Version | Graphics & Text | Print | Product List | Glossary On
Versions: 1 2 3 4 5 6 7 8 9 10 11 12 13 14 15 16 17 18 19 20 21 22 23 24 25 26 27 28 29 30 31 32 33 34 35 36 37 38 39 40 41 42 43 44 45 46 47 48 49 50
000
ASUS43 KMPX 300610
RWRMN
WEATHER ROUNDUP FOR MINNESOTA
NATIONAL WEATHER SERVICE TWIN CITIES/CHANHASSEN MN
100 AM CDT THU MAR 30 2017


NOTE: "FAIR" INDICATES FEW OR NO CLOUDS BELOW 12,000 FEET WITH NO
SIGNIFICANT WEATHER AND/OR OBSTRUCTIONS TO VISIBILITY. N/A MEANS
CURRENT SKY AND/OR WEATHER CONDITIONS ARE NOT AVAILABLE.

MNZ060>063-068>070-300700-
   Twin Cities Metro

CITY           SKY/WX    TMP DP  RH WIND       PRES   REMARKS
TWIN CITIES    CLOUDY    42  36  79 E12       30.06F
6HR MIN TEMP:  42; 6HR MAX TEMP:  45; 6HR PCP: TRACE;

ST PAUL        CLOUDY    42  38  85 E9        30.08F
CRYSTAL        LGT RAIN  42  35  76 E12       30.05F
BLAINE         CLOUDY    43  37  81 E7        30.07F
LAKEVILLE      DRIZZLE   37  37 100 E9        30.04F
EDEN PRAIRIE   LGT RAIN  42  37  82 E12       30.04F
6HR MIN TEMP:  42; 6HR MAX TEMP:  45; 6HR PCP:  0.02;

SOUTH ST PAUL  CLOUDY    42  37  83 E8        30.06F
LAKE ELMO      DRIZZLE   41  37  87 E7        30.08F
$$
MNZ001>005-007-008-013>017-022>024-027-028-300700-
   Northwest Minnesota

CITY           SKY/WX    TMP DP  RH WIND       PRES   REMARKS
BEMIDJI        CLEAR     34  31  89 SE9       30.05S WCI  26
HALLOCK        CLOUDY    45  39  81 S15       29.96R
ROSEAU         CLOUDY    45  36  70 S13       29.99S
WARROAD        PTCLDY    45  34  65 S6        30.00R
THIEF RVR FALL PTCLDY    41  35  79 S14       30.01S
CROOKSTON      CLEAR     41  37  87 SW14G23   30.02R
FOSSTON        CLEAR     36  30  80 S9        30.03F
DETROIT LAKES  CLEAR     36  34  93 S6        30.05F
MOORHEAD       CLEAR     39  36  87 S10       30.05S
PARK RAPIDS    CLEAR     36  28  73 SE7       30.05F
MAHNOMEN       FAIR      37  33  88 S8        30.03F
$$
MNZ006-009>011-018-025>026-300700-
   North Central Minnesota

CITY           SKY/WX    TMP DP  RH WIND       PRES   REMARKS
BAUDETTE       PTCLDY    38  31  76 S9        30.02F
FLAG ISLAND    MOCLDY    36  30  80 S14       29.99R
INTL FALLS     CLEAR     34  27  75 SE7       30.07F WCI  28
6HR MIN TEMP:  34; 6HR MAX TEMP:  50;

WASKISH        PTCLDY    37  32  81 S8        30.04F
BIG FORK       CLEAR     34  28  80 SE5       30.08F WCI  30
LONGVILLE      CLOUDY    30  28  93 CALM      30.08F
GRAND RAPIDS   CLOUDY    30  27  88 SE5       30.12F WCI  25
CRANE LAKE     PTCLDY    28  25  86 CALM      30.14S
ORR            CLEAR     30  23  74 CALM      30.08F
COOK           CLOUDY    30  25  80 CALM      30.11F
WALKER         FAIR      33  30  88 SE5       30.07F WCI  29
$$
MNZ012-019>021-037-300700-
   Northeast Minnesota

CITY           SKY/WX    TMP DP  RH WIND       PRES   REMARKS
DULUTH         CLOUDY    31  29  92 E10       30.13S WCI  22
6HR MIN TEMP:  30; 6HR MAX TEMP:  34;

ELY            PTCLDY    28  23  80 CALM      30.12F
HIBBING        CLOUDY    26  25  96 CALM      30.11F
EVELETH        PTCLDY    28  23  82 CALM      30.13S
DULUTH HARBOR  CLOUDY    36  32  87 NE15      30.17F
TWO HARBORS    PTCLDY    34  28  80 NE5       30.13S WCI  30
SILVER BAY     CLOUDY    30  28  93 NE6       30.14F WCI  24
GRAND MARAIS     N/A     34  25  69 NE9G18    30.19  WCI  27
G MARAIS ARPRT CLOUDY    27  18  69 NE7       30.15S WCI  19
$$
MNZ029>031-032-039>041-046>048-054>057-064-300700-
   West Central Minnesota

CITY           SKY/WX    TMP DP  RH WIND       PRES   REMARKS
FERGUS FALLS   CLEAR     36  36 100 S6        30.09F
WHEATON        MOCLDY    36  34  93 CALM      30.07F
MORRIS         CLOUDY    39  37  93 SE6       30.04F
ALEXANDRIA     CLOUDY    36  35  96 SE5       30.06F
ELBOW LAKE     CLOUDY    37  37  99 CALM      30.06F
WADENA         CLOUDY    32  30  93 CALM      30.06S
GLENWOOD       CLOUDY    37  36  93 E3        30.05F
APPLETON       RAIN      41  37  87 CALM      30.04F
BENSON         DRIZZLE   43  36  75 SE5       30.06F
ORTONVILLE     DRIZZLE   41  36  81 SE7       30.04F
MADISON        CLOUDY    43  43 100 E7        30.03F
WILLMAR        CLOUDY    43  39  87 E10       30.05F
$$
MNZ033>034-036-042>043-049>051-058-059-300700-
   Central Minnesota

CITY           SKY/WX    TMP DP  RH WIND       PRES   REMARKS
ST CLOUD       CLOUDY    40  37  89 E3        30.07F
6HR MIN TEMP:  38; 6HR MAX TEMP:  48;

SAUK CENTRE    CLOUDY    35  34  97 CALM      30.06F
PAYNESVILLE    CLOUDY    41  41 100 E7        30.06F
AITKIN         CLOUDY    30  27  86 CALM      30.09F
PINE RIVER     CLOUDY    30  28  93 SE5       30.11F WCI  25
BRAINERD       PTCLDY    32  29  88 VRB3      30.09F
STAPLES        PTCLDY    34  30  86 E3        30.07F
LONG PRAIRIE   CLOUDY    34  32  93 CALM      30.06F
LITTLE FALLS   MOCLDY    36  32  87 E5        30.08F
LITCHFIELD     CLOUDY    43  39  87 E13       30.05F
BUFFALO        DRIZZLE   40  37  86 NE6       30.07F
MAPLE LAKE     CLOUDY    42  39  89 E8        30.07F
HUTCHINSON     DRIZZLE   41  39  95 NE8       30.05F
$$
MNZ037-044-045-052-053-300700-
   East Central Minnesota

CITY           SKY/WX    TMP DP  RH WIND       PRES   REMARKS
PRINCETON      CLOUDY    39  34  81 NE3       30.09F
MORA           CLOUDY    32  28  86 CALM      30.12F
CAMBRIDGE      CLOUDY    41  30  65 NE3       30.08S
RUSH CITY      CLOUDY    36  31  83 NE3       30.11S
MOOSE LAKE     CLOUDY    32  30  93 NE5       30.11S WCI  27
CLOQUET        CLOUDY    30  28  93 E7        30.12F WCI  23
MCGREGOR       PTCLDY    28  28 100 E3        30.11F
$$
MNZ071>073-080-081-089-090-097-098-300700-
   Southwest Minnesota

CITY           SKY/WX    TMP DP  RH WIND       PRES   REMARKS
MONTEVIDEO     CLOUDY    39  37  93 SE9       30.03F
GRANITE FALLS  CLOUDY    42  39  88 E12       30.03F
CANBY          CLOUDY    41  38  90 CALM      30.03F
REDWOOD FALLS  CLOUDY    40  37  89 E7        30.01F
OLIVIA         CLOUDY    39  36  87 E7        30.02F FOG
PIPESTONE      CLOUDY    37  34  87 E9        29.95F HAZE
WINDOM         DRIZZLE   37  37 100 NE15      29.95F
WORTHINGTON    CLOUDY    37  36  96 NE15      29.94F
JACKSON          N/A     36  36 100 NE14      29.94F FOG
TRACY          DRIZZLE   39  39  98 E15       29.99F
SLAYTON        CLOUDY    36  36  99 NE12      29.97F
$$
MNZ065>067-074>077-082>085-091>093-300700-
   South Central Minnesota

CITY           SKY/WX    TMP DP  RH WIND       PRES   REMARKS
MANKATO        LGT RAIN  40  37  89 NE14G21   30.00F
NEW ULM        DRIZZLE   39  37  93 E10G16    30.00F
ST JAMES       CLOUDY    39  37  93 NE12G18   29.98F
FAIRMONT       CLOUDY    39  36  87 E22       29.93F
GLENCOE        DRIZZLE   40  40 100 E8        30.03F
FARIBAULT      DRIZZLE   39  37  93 NE9       30.02F
OWATONNA       CLOUDY    39  36  87 E14       29.99F
WASECA         CLOUDY    39  36  87 NE14G22   30.00F
ALBERT LEA     LGT RAIN  37  37 100 E21G29    29.94F
$$
MNZ078>079-086>088-094>096-300700-
   Southeast Minnesota

CITY           SKY/WX    TMP DP  RH WIND       PRES   REMARKS
ROCHESTER      LGT RAIN  38  35  89 E18G26    30.00S
6HR MIN TEMP:  38; 6HR MAX TEMP:  40; 6HR PCP:  0.20;

RED WING       DRIZZLE   41  36  81 E9G16     30.05S
STANTON        RAIN      40  37  87 E10       30.02F
DODGE CENTER   LGT RAIN  37  36  93 E20G28    29.99F
WINONA         LGT RAIN  37  36  93 E7        30.05S
AUSTIN         RAIN      37  34  87 E18G31    29.96F
PRESTON        CLOUDY    36  34  92 E14       30.00S FOG
$$
ABBREVIATIONS USED IN REMARKS
   TC - TEMPERATURES IN CELSIUS
  WCI - WIND CHILL INDEX
   HX - HEAT INDEX
  VSB - VISIBILITY
$$




USA.gov is the U.S. government's official web portal to all federal, state and local government web resources and services.